Time,TemperatureF,DewpointF,PressureIn,WindDirection,WindDirectionDegrees,WindSpeedMPH,WindSpeedGustMPH,Humidity,HourlyPrecipIn,Conditions,Clouds,dailyrainin,SoftwareType,DateUTC
2013-06-13 00:01:00,54.9,-0.8,30.15,NNW,331,0.0,0.0,10,0.00,RA,,0.00,WeatherDisplay:10.37,2013-06-13 07:01:00,
2013-06-13 00:11:00,55.2,5.1,30.15,NW,322,0.0,0.0,13,0.00,,,0.00,WeatherDisplay:10.37,2013-06-13 07:11:00,
2013-06-13 00:21:00,54.9,-0.8,30.15,NW,316,0.0,0.0,10,0.00,,,0.00,WeatherDisplay:10.37,2013-06-13 07:21:00,
2013-06-13 00:31:00,54.5,-1.1,30.15,NW,316,0.0,0.0,10,0.00,,,0.00,WeatherDisplay:10.37,2013-06-13 07:31:00,
2013-06-13 00:41:00,54.0,-1.5,30.15,NW,316,0.0,0.0,10,0.00,,,0.00,WeatherDisplay:10.37,2013-06-13 07:41:00,
2013-06-13 00:51:00,53.6,-1.8,30.15,NW,316,0.0,0.0,10,0.00,,,0.00,WeatherDisplay:10.37,2013-06-13 07:51:00,
2013-06-13 01:01:00,53.8,-1.6,30.15,NW,316,0.0,0.0,10,0.00,,,0.00,WeatherDisplay:10.37,2013-06-13 08:01:00,
2013-06-13 01:06:00,54.0,-1.5,30.15,NW,316,0.0,0.0,10,0.00,,,0.00,WeatherDisplay:10.37,2013-06-13 08:06:00,
2013-06-13 01:11:00,53.8,-1.6,30.15,NW,316,0.0,0.0,10,0.00,,,0.00,WeatherDisplay:10.37,2013-06-13 08:11:00,
2013-06-13 01:21:00,53.6,8.4,30.15,NW,316,0.0,0.0,16,0.00,,,0.00,WeatherDisplay:10.37,2013-06-13 08:21:00,
2013-06-13 01:31:00,54.0,-1.5,30.15,NW,316,0.0,0.0,10,0.00,,,0.00,WeatherDisplay:10.37,2013-06-13 08:31:00,
2013-06-13 01:41:00,53.2,16.3,30.15,NW,316,0.0,0.0,23,0.00,,,0.00,WeatherDisplay:10.37,2013-06-13 08:41:00,
2013-06-13 01:46:00,53.4,0.1,30.15,NW,316,0.0,0.0,11,0.00,,,0.00,WeatherDisplay:10.37,2013-06-13 08:46:00,
2013-06-13 01:51:00,53.2,0.0,30.15,NW,316,0.0,0.0,11,0.00,,,0.00,WeatherDisplay:10.37,2013-06-13 08:51:00,
2013-06-13 02:01:00,53.1,-0.2,30.15,NW,317,0.0,0.0,11,0.00,,,0.00,WeatherDisplay:10.37,2013-06-13 09:01:00,
2013-06-13 02:06:00,53.1,-0.2,30.15,WNW,303,0.0,0.0,11,0.00,,,0.00,WeatherDisplay:10.37,2013-06-13 09:06:00,
2013-06-13 02:11:00,53.1,-0.2,30.15,West,266,0.0,0.0,11,0.00,,,0.00,WeatherDisplay:10.37,2013-06-13 09:11:00,
2013-06-13 02:21:00,52.9,-0.3,30.12,NNW,331,0.0,0.0,11,0.00,,,0.00,WeatherDisplay:10.37,2013-06-13 09:21:00,
2013-06-13 02:31:00,52.3,-0.7,30.15,NNW,342,0.0,0.0,11,0.00,,,0.00,WeatherDisplay:10.37,2013-06-13 09:31:00,
2013-06-13 02:36:00,52.4,-0.7,30.15,NNW,342,0.0,0.0,11,0.00,,,0.00,WeatherDisplay:10.37,2013-06-13 09:36:00,
2013-06-13 02:41:00,53.0,-0.2,30.15,NNW,342,0.0,0.0,11,0.00,,,0.00,WeatherDisplay:10.37,2013-06-13 09:41:00,
2013-06-13 02:51:00,53.2,1.8,30.12,NNW,342,0.0,0.0,12,0.00,,,0.00,WeatherDisplay:10.37,2013-06-13 09:51:00,
2013-06-13 03:01:00,52.7,-0.5,30.12,NNW,342,0.0,0.0,11,0.00,,,0.00,WeatherDisplay:10.37,2013-06-13 10:01:00,
2013-06-13 03:06:00,52.5,-0.6,30.12,NNW,342,0.0,0.0,11,0.00,,,0.00,WeatherDisplay:10.37,2013-06-13 10:06:00,
2013-06-13 03:11:00,52.3,2.8,30.12,NNW,344,0.0,0.0,13,0.00,,,0.00,WeatherDisplay:10.37,2013-06-13 10:11:00,
2013-06-13 03:16:00,52.3,2.8,30.12,NNW,346,0.0,0.0,13,0.00,,,0.00,WeatherDisplay:10.37,2013-06-13 10:16:00,
2013-06-13 03:21:00,52.5,3.0,30.12,NNW,346,0.0,0.0,13,0.00,,,0.00,WeatherDisplay:10.37,2013-06-13 10:21:00,
2013-06-13 03:31:00,52.9,3.3,30.12,North,350,0.0,0.0,13,0.00,,,0.00,WeatherDisplay:10.37,2013-06-13 10:31:00,
2013-06-13 03:41:00,53.2,3.6,30.12,North,353,0.0,0.0,13,0.00,,,0.00,WeatherDisplay:10.37,2013-06-13 10:41:00,
2013-06-13 03:51:00,53.4,3.7,30.12,North,353,0.0,0.0,13,0.00,,,0.00,WeatherDisplay:10.37,2013-06-13 10:51:00,
2013-06-13 03:56:00,53.4,3.7,30.12,North,353,0.0,0.0,13,0.00,,,0.00,WeatherDisplay:10.37,2013-06-13 10:56:00,
2013-06-13 04:01:00,53.4,18.4,30.12,North,353,0.0,0.0,25,0.00,,,0.00,WeatherDisplay:10.37,2013-06-13 11:01:00,
2013-06-13 04:06:00,53.2,3.6,30.12,North,353,0.0,0.0,13,0.00,,,0.00,WeatherDisplay:10.37,2013-06-13 11:06:00,
2013-06-13 04:11:00,53.2,3.6,30.12,North,353,0.0,0.0,13,0.00,,,0.00,WeatherDisplay:10.37,2013-06-13 11:11:00,
2013-06-13 04:21:00,53.2,3.6,30.12,North,353,0.0,0.0,13,0.00,,,0.00,WeatherDisplay:10.37,2013-06-13 11:21:00,
2013-06-13 04:31:00,53.2,3.6,30.12,North,353,0.0,0.0,13,0.00,,,0.00,WeatherDisplay:10.37,2013-06-13 11:31:00,
2013-06-13 04:41:00,53.2,3.6,30.12,North,9,0.0,0.0,13,0.00,,,0.00,WeatherDisplay:10.37,2013-06-13 11:41:00,
2013-06-13 04:51:00,53.1,3.4,30.12,North,1,0.0,0.0,13,0.00,,,0.00,WeatherDisplay:10.37,2013-06-13 11:51:00,
2013-06-13 05:01:00,53.4,3.7,30.12,North,357,0.0,0.0,13,0.00,,,0.00,WeatherDisplay:10.37,2013-06-13 12:01:00,
2013-06-13 05:06:00,53.6,3.8,30.12,North,357,0.0,0.0,13,0.00,,,0.00,WeatherDisplay:10.37,2013-06-13 12:06:00,
2013-06-13 05:11:00,53.7,3.9,30.12,North,357,0.0,0.0,13,0.00,,,0.00,WeatherDisplay:10.37,2013-06-13 12:11:00,
2013-06-13 05:21:00,53.2,3.6,30.12,NNW,327,0.0,0.0,13,0.00,,,0.00,WeatherDisplay:10.37,2013-06-13 12:21:00,
2013-06-13 05:31:00,53.2,3.6,30.15,NW,319,0.0,0.0,13,0.00,,,0.00,WeatherDisplay:10.37,2013-06-13 12:31:00,
2013-06-13 05:41:00,53.1,3.4,30.15,NNW,329,0.0,0.0,13,0.00,,,0.00,WeatherDisplay:10.37,2013-06-13 12:41:00,
2013-06-13 05:46:00,53.2,3.6,30.15,NNW,329,0.0,0.0,13,0.00,,,0.00,WeatherDisplay:10.37,2013-06-13 12:46:00,
2013-06-13 05:51:00,53.2,3.6,30.15,NNW,329,0.0,0.0,13,0.00,,,0.00,WeatherDisplay:10.37,2013-06-13 12:51:00,
2013-06-13 06:01:00,53.4,3.7,30.15,NNW,329,0.0,0.0,13,0.00,,,0.00,WeatherDisplay:10.37,2013-06-13 13:01:00,
2013-06-13 06:06:00,53.4,3.7,30.15,NNW,330,0.0,0.0,13,0.00,,,0.00,WeatherDisplay:10.37,2013-06-13 13:06:00,
2013-06-13 06:11:00,53.9,4.1,30.15,North,8,0.0,0.0,13,0.00,,,0.00,WeatherDisplay:10.37,2013-06-13 13:11:00,
2013-06-13 06:21:00,54.8,4.8,30.15,NNE,17,0.0,0.0,13,0.00,,,0.00,WeatherDisplay:10.37,2013-06-13 13:21:00,
2013-06-13 06:31:00,55.6,3.7,30.15,North,10,0.0,0.0,12,0.00,,,0.00,WeatherDisplay:10.37,2013-06-13 13:31:00,
2013-06-13 06:41:00,56.3,4.2,30.15,North,10,0.0,0.0,12,0.00,,,0.00,WeatherDisplay:10.37,2013-06-13 13:41:00,
2013-06-13 06:46:00,56.7,4.5,30.15,North,10,0.0,0.0,12,0.00,,,0.00,WeatherDisplay:10.37,2013-06-13 13:46:00,
2013-06-13 06:51:00,57.0,4.8,30.15,North,10,0.0,0.0,12,0.00,,,0.00,WeatherDisplay:10.37,2013-06-13 13:51:00,
2013-06-13 07:01:00,57.4,5.1,30.15,NNW,348,0.0,0.0,12,0.00,,,0.00,WeatherDisplay:10.37,2013-06-13 14:01:00,
2013-06-13 07:06:00,57.6,5.2,30.15,SW,236,2.0,3.0,12,0.00,,,0.00,WeatherDisplay:10.37,2013-06-13 14:06:00,
2013-06-13 07:11:00,57.7,5.4,30.15,SW,224,0.0,4.0,12,0.00,,,0.00,WeatherDisplay:10.37,2013-06-13 14:11:00,
2013-06-13 07:21:00,58.1,5.7,30.15,SSW,213,0.0,0.0,12,0.00,,,0.00,WeatherDisplay:10.37,2013-06-13 14:21:00,
2013-06-13 07:31:00,59.2,6.5,30.15,South,184,0.0,0.0,12,0.00,,,0.00,WeatherDisplay:10.37,2013-06-13 14:31:00,
2013-06-13 07:41:00,60.4,7.5,30.15,South,190,0.0,0.0,12,0.00,,,0.00,WeatherDisplay:10.37,2013-06-13 14:41:00,
2013-06-13 07:46:00,60.6,7.6,30.15,South,180,0.0,0.0,12,0.00,,,0.00,WeatherDisplay:10.37,2013-06-13 14:46:00,
2013-06-13 07:51:00,61.0,6.0,30.15,South,176,0.0,0.0,11,0.00,,,0.00,WeatherDisplay:10.37,2013-06-13 14:51:00,
2013-06-13 07:56:00,61.6,6.5,30.15,SSW,199,0.0,0.0,11,0.00,,,0.00,WeatherDisplay:10.37,2013-06-13 14:56:00,
2013-06-13 08:06:00,62.6,7.3,30.15,SW,220,0.0,0.0,11,0.00,,,0.00,WeatherDisplay:10.37,2013-06-13 15:06:00,
2013-06-13 08:11:00,63.1,7.7,30.15,SW,225,0.0,3.0,11,0.00,,,0.00,WeatherDisplay:10.37,2013-06-13 15:11:00,
2013-06-13 08:21:00,64.8,6.8,30.15,WSW,240,3.0,6.0,10,0.00,,,0.00,WeatherDisplay:10.37,2013-06-13 15:21:00,
2013-06-13 08:26:00,65.5,7.4,30.15,WSW,258,2.0,6.0,10,0.00,,,0.00,WeatherDisplay:10.37,2013-06-13 15:26:00,
2013-06-13 08:31:00,66.0,7.8,30.18,WNW,285,3.0,7.0,10,0.00,,,0.00,WeatherDisplay:10.37,2013-06-13 15:31:00,
2013-06-13 08:36:00,66.6,8.2,30.18,WNW,301,5.0,8.0,10,0.00,,,0.00,WeatherDisplay:10.37,2013-06-13 15:36:00,
2013-06-13 08:41:00,67.1,8.7,30.18,West,276,3.0,6.0,10,0.00,,,0.00,WeatherDisplay:10.37,2013-06-13 15:41:00,
2013-06-13 08:51:00,68.2,9.4,30.18,West,263,1.0,6.0,10,0.00,,,0.00,WeatherDisplay:10.37,2013-06-13 15:51:00,
2013-06-13 08:56:00,68.6,9.8,30.18,WSW,245,3.0,5.0,10,0.00,,,0.00,WeatherDisplay:10.37,2013-06-13 15:56:00,
2013-06-13 09:01:00,68.9,10.0,30.18,West,279,5.0,7.0,10,0.00,,,0.00,WeatherDisplay:10.37,2013-06-13 16:01:00,
2013-06-13 09:06:00,69.1,10.1,30.18,WNW,289,3.0,6.0,10,0.00,,,0.00,WeatherDisplay:10.37,2013-06-13 16:06:00,
2013-06-13 09:11:00,69.7,16.6,30.18,West,278,3.0,8.0,13,0.00,,,0.00,WeatherDisplay:10.37,2013-06-13 16:11:00,
2013-06-13 09:21:00,69.6,10.6,30.18,WSW,256,0.0,6.0,10,0.00,,,0.00,WeatherDisplay:10.37,2013-06-13 16:21:00,
2013-06-13 09:31:00,70.6,8.9,30.18,SW,227,0.0,6.0,9,0.00,,,0.00,WeatherDisplay:10.37,2013-06-13 16:31:00,
2013-06-13 09:41:00,71.6,9.7,30.18,West,261,3.0,6.0,9,0.00,,,0.00,WeatherDisplay:10.37,2013-06-13 16:41:00,
2013-06-13 09:51:00,72.5,10.4,30.18,SW,231,2.0,6.0,9,0.00,,,0.00,WeatherDisplay:10.37,2013-06-13 16:51:00,
2013-06-13 09:56:00,72.7,10.5,30.18,WSW,243,5.0,6.0,9,0.00,,,0.00,WeatherDisplay:10.37,2013-06-13 16:56:00,
2013-06-13 10:01:00,73.0,10.8,30.18,SW,235,3.0,6.0,9,0.00,,,0.00,WeatherDisplay:10.37,2013-06-13 17:01:00,
2013-06-13 10:06:00,73.4,8.4,30.18,SW,223,2.0,6.0,8,0.00,,,0.00,WeatherDisplay:10.37,2013-06-13 17:06:00,
2013-06-13 10:11:00,73.8,8.7,30.18,SW,221,0.0,7.0,8,0.00,,,0.00,WeatherDisplay:10.37,2013-06-13 17:11:00,
2013-06-13 10:16:00,74.2,9.0,30.18,SW,230,3.0,6.0,8,0.00,,,0.00,WeatherDisplay:10.37,2013-06-13 17:16:00,
2013-06-13 10:21:00,74.7,9.4,30.18,SSW,205,0.0,5.0,8,0.00,,,0.00,WeatherDisplay:10.37,2013-06-13 17:21:00,
2013-06-13 10:26:00,75.2,9.8,30.18,South,183,2.0,5.0,8,0.00,,,0.00,WeatherDisplay:10.37,2013-06-13 17:26:00,
2013-06-13 10:31:00,75.6,10.0,30.18,South,186,2.0,4.0,8,0.00,,,0.00,WeatherDisplay:10.37,2013-06-13 17:31:00,
2013-06-13 10:36:00,75.9,10.3,30.18,South,180,1.0,4.0,8,0.00,,,0.00,WeatherDisplay:10.37,2013-06-13 17:36:00,
2013-06-13 10:41:00,76.1,10.4,30.18,South,178,1.0,5.0,8,0.00,,,0.00,WeatherDisplay:10.37,2013-06-13 17:41:00,
2013-06-13 10:51:00,76.6,10.9,30.18,South,172,0.0,5.0,8,0.00,,,0.00,WeatherDisplay:10.37,2013-06-13 17:51:00,
2013-06-13 10:56:00,76.5,10.7,30.18,South,188,3.0,6.0,8,0.00,,,0.00,WeatherDisplay:10.37,2013-06-13 17:56:00,
2013-06-13 11:01:00,76.5,10.7,30.18,SW,218,5.0,8.0,8,0.00,,,0.00,WeatherDisplay:10.37,2013-06-13 18:01:00,
2013-06-13 11:06:00,76.5,10.7,30.18,SW,220,2.0,6.0,8,0.00,,,0.00,WeatherDisplay:10.37,2013-06-13 18:06:00,
2013-06-13 11:11:00,76.3,10.6,30.18,SW,227,1.0,6.0,8,0.00,,,0.00,WeatherDisplay:10.37,2013-06-13 18:11:00,
2013-06-13 11:21:00,76.3,10.6,30.18,WSW,247,3.0,8.0,8,0.00,,,0.00,WeatherDisplay:10.37,2013-06-13 18:21:00,
2013-06-13 11:31:00,76.5,10.7,30.18,WSW,248,6.0,8.0,8,0.00,,,0.00,WeatherDisplay:10.37,2013-06-13 18:31:00,
2013-06-13 11:41:00,76.6,10.8,30.18,SSW,192,3.0,6.0,8,0.00,,,0.00,WeatherDisplay:10.37,2013-06-13 18:41:00,
2013-06-13 11:51:00,76.5,10.7,30.18,SW,217,5.0,10.0,8,0.00,,,0.00,WeatherDisplay:10.37,2013-06-13 18:51:00,
2013-06-13 12:01:00,75.9,10.3,30.18,SSW,207,2.0,6.0,8,0.00,,,0.00,WeatherDisplay:10.37,2013-06-13 19:01:00,
2013-06-13 12:06:00,76.1,10.4,30.18,South,181,1.0,6.0,8,0.00,,,0.00,WeatherDisplay:10.37,2013-06-13 19:06:00,
2013-06-13 12:11:00,76.1,10.5,30.18,South,184,0.0,4.0,8,0.00,,,0.00,WeatherDisplay:10.37,2013-06-13 19:11:00,
2013-06-13 12:16:00,76.3,10.6,30.18,SW,219,6.0,8.0,8,0.00,,,0.00,WeatherDisplay:10.37,2013-06-13 19:16:00,
2013-06-13 12:21:00,76.1,10.4,30.18,SW,228,5.0,8.0,8,0.00,,,0.00,WeatherDisplay:10.37,2013-06-13 19:21:00,
2013-06-13 12:31:00,76.5,10.7,30.18,SSW,205,2.0,9.0,8,0.00,,,0.00,WeatherDisplay:10.37,2013-06-13 19:31:00,
2013-06-13 12:41:00,76.5,10.7,30.18,SW,223,3.0,6.0,8,0.00,,,0.00,WeatherDisplay:10.37,2013-06-13 19:41:00,
2013-06-13 12:51:00,76.5,10.7,30.18,SW,216,2.0,6.0,8,0.00,,,0.00,WeatherDisplay:10.37,2013-06-13 19:51:00,
2013-06-13 13:01:00,76.8,11.0,30.18,SW,228,5.0,8.0,8,0.00,,,0.00,WeatherDisplay:10.37,2013-06-13 20:01:00,
2013-06-13 13:06:00,76.8,11.0,30.18,SW,224,3.0,8.0,8,0.00,,,0.00,WeatherDisplay:10.37,2013-06-13 20:06:00,
2013-06-13 13:11:00,76.8,11.0,30.18,SW,215,5.0,10.0,8,0.00,,,0.00,WeatherDisplay:10.37,2013-06-13 20:11:00,
2013-06-13 13:21:00,77.0,11.1,30.18,SSW,213,2.0,6.0,8,0.00,,,0.00,WeatherDisplay:10.37,2013-06-13 20:21:00,
2013-06-13 13:31:00,76.8,11.0,30.18,SSW,201,5.0,8.0,8,0.00,,,0.00,WeatherDisplay:10.37,2013-06-13 20:31:00,
2013-06-13 13:36:00,76.6,10.9,30.18,SSW,208,2.0,6.0,8,0.00,,,0.00,WeatherDisplay:10.37,2013-06-13 20:36:00,
2013-06-13 13:41:00,76.8,11.0,30.18,SSW,210,3.0,6.0,8,0.00,,,0.00,WeatherDisplay:10.37,2013-06-13 20:41:00,
2013-06-13 13:51:00,77.0,11.1,30.18,SW,227,3.0,7.0,8,0.00,,,0.00,WeatherDisplay:10.37,2013-06-13 20:51:00,
2013-06-13 14:01:00,77.0,11.1,30.18,SSW,198,5.0,8.0,8,0.00,,,0.00,WeatherDisplay:10.37,2013-06-13 21:01:00,
2013-06-13 14:06:00,76.8,11.0,30.18,South,189,2.0,6.0,8,0.00,,,0.00,WeatherDisplay:10.37,2013-06-13 21:06:00,
2013-06-13 14:11:00,77.0,11.1,30.18,SSW,195,3.0,6.0,8,0.00,,,0.00,WeatherDisplay:10.37,2013-06-13 21:11:00,
2013-06-13 14:21:00,77.0,11.1,30.18,SSW,207,2.0,8.0,8,0.00,,,0.00,WeatherDisplay:10.37,2013-06-13 21:21:00,
2013-06-13 14:31:00,77.2,11.3,30.18,SSW,212,2.0,6.0,8,0.00,,,0.00,WeatherDisplay:10.37,2013-06-13 21:31:00,
2013-06-13 14:36:00,77.2,11.3,30.18,SSW,208,3.0,8.0,8,0.00,,,0.00,WeatherDisplay:10.37,2013-06-13 21:36:00,
2013-06-13 14:41:00,77.2,11.3,30.18,SW,222,6.0,9.0,8,0.00,,,0.00,WeatherDisplay:10.37,2013-06-13 21:41:00,
2013-06-13 14:51:00,77.5,11.5,30.18,SW,224,3.0,8.0,8,0.00,,,0.00,WeatherDisplay:10.37,2013-06-13 21:51:00,
2013-06-13 15:01:00,77.5,11.5,30.18,SW,221,3.0,10.0,8,0.00,,,0.00,WeatherDisplay:10.37,2013-06-13 22:01:00,
2013-06-13 15:06:00,77.8,11.7,30.18,WSW,249,3.0,8.0,8,0.00,,,0.00,WeatherDisplay:10.37,2013-06-13 22:06:00,
2013-06-13 15:11:00,78.3,12.1,30.18,SW,234,3.0,7.0,8,0.00,,,0.00,WeatherDisplay:10.37,2013-06-13 22:11:00,
2013-06-13 15:16:00,78.3,12.1,30.18,SW,233,5.0,8.0,8,0.00,,,0.00,WeatherDisplay:10.37,2013-06-13 22:16:00,
2013-06-13 15:21:00,77.9,11.8,30.18,SW,233,5.0,9.0,8,0.00,,,0.00,WeatherDisplay:10.37,2013-06-13 22:21:00,
2013-06-13 15:26:00,77.5,11.5,30.18,SW,233,3.0,6.0,8,0.00,,,0.00,WeatherDisplay:10.37,2013-06-13 22:26:00,
2013-06-13 15:31:00,77.7,11.6,30.15,SW,234,5.0,8.0,8,0.00,,,0.00,WeatherDisplay:10.37,2013-06-13 22:31:00,
2013-06-13 15:41:00,77.4,11.4,30.15,WSW,256,5.0,9.0,8,0.00,,,0.00,WeatherDisplay:10.37,2013-06-13 22:41:00,
2013-06-13 15:51:00,76.7,10.9,30.15,SW,236,6.0,11.0,8,0.00,,,0.00,WeatherDisplay:10.37,2013-06-13 22:51:00,
2013-06-13 15:56:00,76.2,10.5,30.15,SW,233,5.0,10.0,8,0.00,,,0.00,WeatherDisplay:10.37,2013-06-13 22:56:00,
2013-06-13 16:01:00,75.7,10.2,30.15,SW,234,6.0,11.0,8,0.00,,,0.00,WeatherDisplay:10.37,2013-06-13 23:01:00,
2013-06-13 16:06:00,75.6,10.0,30.15,WSW,248,5.0,8.0,8,0.00,,,0.00,WeatherDisplay:10.37,2013-06-13 23:06:00,
2013-06-13 16:11:00,75.4,9.9,30.15,WSW,238,6.0,9.0,8,0.00,,,0.00,WeatherDisplay:10.37,2013-06-13 23:11:00,
2013-06-13 16:16:00,75.2,9.8,30.15,SW,234,2.0,9.0,8,0.00,,,0.00,WeatherDisplay:10.37,2013-06-13 23:16:00,
2013-06-13 16:21:00,75.1,9.7,30.15,WSW,241,5.0,10.0,8,0.00,,,0.00,WeatherDisplay:10.37,2013-06-13 23:21:00,
2013-06-13 16:31:00,74.4,9.2,30.15,WSW,238,7.0,12.0,8,0.00,,,0.00,WeatherDisplay:10.37,2013-06-13 23:31:00,
2013-06-13 16:36:00,74.1,9.0,30.15,WSW,243,5.0,11.0,8,0.00,,,0.00,WeatherDisplay:10.37,2013-06-13 23:36:00,
2013-06-13 16:41:00,73.8,8.7,30.15,WSW,242,5.0,11.0,8,0.00,,,0.00,WeatherDisplay:10.37,2013-06-13 23:41:00,
2013-06-13 16:51:00,73.2,10.9,30.15,WSW,248,8.0,10.0,9,0.00,,,0.00,WeatherDisplay:10.37,2013-06-13 23:51:00,
2013-06-13 17:01:00,73.2,10.9,30.15,SW,233,3.0,8.0,9,0.00,,,0.00,WeatherDisplay:10.37,2013-06-14 00:01:00,
2013-06-13 17:06:00,73.0,10.8,30.15,SW,230,6.0,9.0,9,0.00,,,0.00,WeatherDisplay:10.37,2013-06-14 00:06:00,
2013-06-13 17:11:00,72.7,10.5,30.15,SW,236,2.0,9.0,9,0.00,,,0.00,WeatherDisplay:10.37,2013-06-14 00:11:00,
2013-06-13 17:16:00,72.7,10.5,30.15,SW,230,3.0,8.0,9,0.00,,,0.00,WeatherDisplay:10.37,2013-06-14 00:16:00,
2013-06-13 17:21:00,72.7,10.5,30.15,SW,224,5.0,8.0,9,0.00,,,0.00,WeatherDisplay:10.37,2013-06-14 00:21:00,
2013-06-13 17:31:00,72.0,10.0,30.15,WSW,238,3.0,8.0,9,0.00,,,0.00,WeatherDisplay:10.37,2013-06-14 00:31:00,
2013-06-13 17:41:00,71.8,9.8,30.15,SW,225,5.0,8.0,9,0.00,,,0.00,WeatherDisplay:10.37,2013-06-14 00:41:00,
2013-06-13 17:46:00,71.6,9.7,30.12,WSW,240,3.0,6.0,9,0.00,,,0.00,WeatherDisplay:10.37,2013-06-14 00:46:00,
2013-06-13 17:51:00,71.6,9.7,30.12,SW,227,0.0,6.0,9,0.00,,,0.00,WeatherDisplay:10.37,2013-06-14 00:51:00,
2013-06-13 17:56:00,71.2,9.4,30.12,SSW,210,3.0,6.0,9,0.00,,,0.00,WeatherDisplay:10.37,2013-06-14 00:56:00,
2013-06-13 18:01:00,70.7,9.0,30.12,SSW,208,2.0,6.0,9,0.00,,,0.00,WeatherDisplay:10.37,2013-06-14 01:01:00,
2013-06-13 18:06:00,70.3,8.8,30.12,SW,217,5.0,8.0,9,0.00,,,0.00,WeatherDisplay:10.37,2013-06-14 01:06:00,
2013-06-13 18:11:00,70.0,8.5,30.12,SW,223,3.0,7.0,9,0.00,,,0.00,WeatherDisplay:10.37,2013-06-14 01:11:00,
2013-06-13 18:16:00,69.6,10.6,30.12,SW,222,3.0,6.0,10,0.00,,,0.00,WeatherDisplay:10.37,2013-06-14 01:16:00,
2013-06-13 18:21:00,69.4,10.4,30.12,SW,225,3.0,8.0,10,0.00,,,0.00,WeatherDisplay:10.37,2013-06-14 01:21:00,
2013-06-13 18:31:00,68.9,10.0,30.12,SW,226,3.0,8.0,10,0.00,,,0.00,WeatherDisplay:10.37,2013-06-14 01:31:00,
2013-06-13 18:41:00,68.2,13.6,30.12,WSW,251,3.0,8.0,12,0.00,,,0.00,WeatherDisplay:10.37,2013-06-14 01:41:00,
2013-06-13 18:46:00,68.2,9.5,30.12,WSW,256,5.0,6.0,10,0.00,,,0.00,WeatherDisplay:10.37,2013-06-14 01:46:00,
2013-06-13 18:51:00,68.0,30.8,30.12,West,259,3.0,6.0,25,0.00,,,0.00,WeatherDisplay:10.37,2013-06-14 01:51:00,
2013-06-13 18:56:00,67.8,9.2,30.12,WSW,253,3.0,8.0,10,0.00,,,0.00,WeatherDisplay:10.37,2013-06-14 01:56:00,
2013-06-13 19:01:00,67.4,8.8,30.12,WSW,249,3.0,8.0,10,0.00,,,0.00,WeatherDisplay:10.37,2013-06-14 02:01:00,
2013-06-13 19:06:00,67.0,8.5,30.12,WSW,237,5.0,8.0,10,0.00,,,0.00,WeatherDisplay:10.37,2013-06-14 02:06:00,
2013-06-13 19:11:00,66.6,8.2,30.12,WSW,239,5.0,7.0,10,0.00,,,0.00,WeatherDisplay:10.37,2013-06-14 02:11:00,
2013-06-13 19:16:00,66.4,8.1,30.12,WSW,243,3.0,6.0,10,0.00,,,0.00,WeatherDisplay:10.37,2013-06-14 02:16:00,
2013-06-13 19:21:00,66.0,7.8,30.12,WSW,252,2.0,6.0,10,0.00,,,0.00,WeatherDisplay:10.37,2013-06-14 02:21:00,
2013-06-13 19:26:00,65.8,7.7,30.12,West,260,0.0,3.0,10,0.00,,,0.00,WeatherDisplay:10.37,2013-06-14 02:26:00,
2013-06-13 19:31:00,65.7,7.5,30.12,WSW,245,0.0,0.0,10,0.00,,,0.00,WeatherDisplay:10.37,2013-06-14 02:31:00,
2013-06-13 19:36:00,65.1,7.1,30.12,WSW,246,1.0,6.0,10,0.00,,,0.00,WeatherDisplay:10.37,2013-06-14 02:36:00,
2013-06-13 19:41:00,64.8,6.8,30.12,WSW,249,2.0,4.0,10,0.00,,,0.00,WeatherDisplay:10.37,2013-06-14 02:41:00,
2013-06-13 19:51:00,63.9,19.5,30.12,WSW,247,0.0,5.0,18,0.00,,,0.00,WeatherDisplay:10.37,2013-06-14 02:51:00,
2013-06-13 20:01:00,63.0,7.5,30.12,SSW,209,0.0,0.0,11,0.04,RA,,0.04,WeatherDisplay:10.37,2013-06-14 03:01:00,
2013-06-13 20:06:00,62.4,7.1,30.12,SW,214,0.0,0.0,11,0.00,RA,,0.04,WeatherDisplay:10.37,2013-06-14 03:06:00,
2013-06-13 20:11:00,61.9,6.7,30.12,WSW,247,0.0,0.0,11,0.00,,,0.04,WeatherDisplay:10.37,2013-06-14 03:11:00,
2013-06-13 20:21:00,61.5,6.4,30.12,West,278,0.0,0.0,11,0.00,,,0.04,WeatherDisplay:10.37,2013-06-14 03:21:00,
2013-06-13 20:31:00,60.8,5.9,30.12,West,281,0.0,0.0,11,0.00,,,0.04,WeatherDisplay:10.37,2013-06-14 03:31:00,
2013-06-13 20:41:00,60.2,7.3,30.12,WNW,283,0.0,0.0,12,0.00,,,0.04,WeatherDisplay:10.37,2013-06-14 03:41:00,
2013-06-13 20:46:00,59.9,7.1,30.12,West,278,0.0,0.0,12,0.00,,,0.04,WeatherDisplay:10.37,2013-06-14 03:46:00,
2013-06-13 20:51:00,59.5,6.8,30.12,West,276,0.0,0.0,12,0.00,,,0.04,WeatherDisplay:10.37,2013-06-14 03:51:00,
2013-06-13 21:01:00,59.0,6.4,30.12,West,275,0.0,0.0,12,0.00,,,0.04,WeatherDisplay:10.37,2013-06-14 04:01:00,
2013-06-13 21:06:00,58.6,6.1,30.12,West,275,0.0,0.0,12,0.00,,,0.04,WeatherDisplay:10.37,2013-06-14 04:06:00,
2013-06-13 21:11:00,58.5,5.9,30.12,West,275,0.0,0.0,12,0.00,,,0.04,WeatherDisplay:10.37,2013-06-14 04:11:00,
2013-06-13 21:21:00,58.3,5.8,30.12,West,275,0.0,0.0,12,0.00,,,0.04,WeatherDisplay:10.37,2013-06-14 04:21:00,
2013-06-13 21:26:00,58.1,5.7,30.12,West,275,0.0,0.0,12,0.00,,,0.04,WeatherDisplay:10.37,2013-06-14 04:26:00,
2013-06-13 21:31:00,58.1,5.7,30.12,West,275,0.0,0.0,12,0.00,,,0.04,WeatherDisplay:10.37,2013-06-14 04:31:00,
2013-06-13 21:36:00,58.1,5.7,30.12,West,274,0.0,3.0,12,0.00,,,0.04,WeatherDisplay:10.37,2013-06-14 04:36:00,
2013-06-13 21:41:00,58.1,5.6,30.12,West,273,0.0,3.0,12,0.00,,,0.04,WeatherDisplay:10.37,2013-06-14 04:41:00,
2013-06-13 21:51:00,57.8,5.4,30.12,WSW,248,0.0,0.0,12,0.00,,,0.04,WeatherDisplay:10.37,2013-06-14 04:51:00,
2013-06-13 21:56:00,57.9,5.5,30.12,WSW,241,0.0,0.0,12,0.00,,,0.04,WeatherDisplay:10.37,2013-06-14 04:56:00,
2013-06-13 22:01:00,57.9,5.5,30.15,West,260,0.0,0.0,12,0.00,,,0.04,WeatherDisplay:10.37,2013-06-14 05:01:00,
2013-06-13 22:06:00,57.9,5.5,30.15,NW,304,0.0,0.0,12,0.00,,,0.04,WeatherDisplay:10.37,2013-06-14 05:06:00,
2013-06-13 22:11:00,57.7,5.4,30.15,WNW,283,0.0,0.0,12,0.00,,,0.04,WeatherDisplay:10.37,2013-06-14 05:11:00,
2013-06-13 22:16:00,57.7,5.4,30.15,WSW,242,0.0,0.0,12,0.00,,,0.04,WeatherDisplay:10.37,2013-06-14 05:16:00,
2013-06-13 22:21:00,57.7,5.4,30.15,WSW,245,0.0,0.0,12,0.00,,,0.04,WeatherDisplay:10.37,2013-06-14 05:21:00,
2013-06-13 22:31:00,57.6,5.2,30.12,West,267,0.0,0.0,12,0.00,,,0.04,WeatherDisplay:10.37,2013-06-14 05:31:00,
2013-06-13 22:36:00,57.4,5.1,30.12,West,261,0.0,0.0,12,0.00,,,0.04,WeatherDisplay:10.37,2013-06-14 05:36:00,
2013-06-13 22:41:00,57.2,5.0,30.12,West,261,0.0,0.0,12,0.00,,,0.04,WeatherDisplay:10.37,2013-06-14 05:41:00,
2013-06-13 22:51:00,57.0,4.8,30.12,West,261,0.0,0.0,12,0.00,,,0.04,WeatherDisplay:10.37,2013-06-14 05:51:00,
2013-06-13 23:01:00,57.0,4.8,30.12,West,261,0.0,0.0,12,0.00,,,0.04,WeatherDisplay:10.37,2013-06-14 06:01:00,
2013-06-13 23:06:00,57.2,5.0,30.12,West,261,0.0,0.0,12,0.00,,,0.04,WeatherDisplay:10.37,2013-06-14 06:06:00,
2013-06-13 23:11:00,57.4,5.1,30.12,SW,231,0.0,3.0,12,0.00,,,0.04,WeatherDisplay:10.37,2013-06-14 06:11:00,
2013-06-13 23:16:00,57.6,5.2,30.12,SSW,204,0.0,4.0,12,0.00,,,0.04,WeatherDisplay:10.37,2013-06-14 06:16:00,
2013-06-13 23:21:00,57.2,5.0,30.12,SSW,204,0.0,0.0,12,0.00,,,0.04,WeatherDisplay:10.37,2013-06-14 06:21:00,
2013-06-13 23:26:00,56.7,0.6,30.12,WSW,243,0.0,0.0,10,0.00,,,0.04,WeatherDisplay:10.37,2013-06-14 06:26:00,
2013-06-13 23:31:00,56.3,0.3,30.12,NW,313,0.0,0.0,10,0.00,,,0.04,WeatherDisplay:10.37,2013-06-14 06:31:00,
2013-06-13 23:41:00,56.1,0.2,30.12,NW,322,0.0,0.0,10,0.00,,,0.04,WeatherDisplay:10.37,2013-06-14 06:41:00,
2013-06-13 23:46:00,55.9,0.0,30.12,NW,322,0.0,0.0,10,0.00,,,0.04,WeatherDisplay:10.37,2013-06-14 06:46:00,
2013-06-13 23:51:00,55.9,0.0,30.12,NW,322,0.0,0.0,10,0.00,,,0.04,WeatherDisplay:10.37,2013-06-14 06:51:00,
2013-06-13 23:56:00,56.0,0.0,30.12,NW,322,0.0,0.0,10,0.00,,,0.04,WeatherDisplay:10.37,2013-06-14 06:56:00,